Theta_e
314 305 307 303 292 289 285 289 294 294 296 297 300 302 298 295 294 294 301 301 308 310 315 318 325 326 328 330 330 332 334 340 344 346 345 345 345 345 348 349 349 350 350 349 349 349 347 348 348
308 308 305 295 287 283 284 290 291 293 293 294 298 298 295 292 297 296 298 302 305 307 311 315 322 322 323 325 324 326 329 331 334 338 343 345 344 345 346 348 349 348 348 348 348 347 347 347 347
303 305 300 289 285 283 285 291 292 294 292 295 296 295 294 293 295 295 299 302 302 302 306 313 317 319 320 321 321 322 323 325 328 331 334 339 342 344 345 347 348 347 348 348 347 348 347 347 346
304 300 294 288 285 287 289 289 289 290 292 292 293 290 292 295 295 298 301 301 300 300 302 310 314 316 317 317 317 317 318 320 321 323 327 329 333 337 342 344 346 347 348 347 347 347 347 346 345
296 292 286 285 287 288 288 288 289 289 289 289 291 290 289 294 298 299 299 300 299 299 299 303 310 311 313 313 314 314 315 316 316 317 320 323 325 328 334 339 343 345 346 346 347 347 345 345 344
292 289 283 282 284 287 288 286 288 288 287 289 291 291 290 296 298 298 299 298 299 298 299 299 303 307 308 309 310 311 312 312 313 314 314 316 318 322 329 333 339 343 344 345 346 345 343 343 343
290 286 283 283 284 286 287 286 286 286 287 287 290 289 292 295 298 298 298 298 297 298 297 297 298 300 302 304 306 307 308 309 309 309 310 311 312 317 321 324 330 337 342 343 343 343 343 342 342
288 286 283 282 282 285 285 286 286 287 286 289 290 287 289 294 298 298 298 298 297 297 296 296 297 297 297 299 302 303 304 305 305 305 305 306 307 309 312 321 322 326 331 340 341 342 342 342 340
290 284 281 283 282 284 285 285 287 288 287 288 290 289 293 296 297 297 296 296 296 296 296 296 296 296 296 298 298 300 300 301 301 301 302 302 303 304 308 314 323 322 323 334 340 341 340 338 335
285 281 282 282 283 282 284 285 286 286 286 287 288 292 295 296 295 294 294 294 293 294 294 295 295 295 295 295 297 297 297 297 298 299 299 300 301 304 305 310 318 320 320 325 335 338 336 332 339
285 281 283 284 285 286 285 284 287 285 284 286 286 289 292 294 294 293 293 293 293 294 294 295 294 295 295 295 296 295 296 296 297 297 298 299 300 302 304 308 313 318 317 321 332 336 338 338 337
282 286 285 286 288 286 285 287 285 285 287 289 289 291 292 292 292 293 293 292 292 292 292 293 293 293 294 294 294 294 294 295 295 296 297 298 299 300 301 303 306 312 319 317 318 330 335 337 336
284 285 287 288 288 287 287 286 285 285 288 289 289 289 290 290 291 293 293 294 292 291 291 292 292 292 293 293 293 293 293 294 294 295 296 298 297 298 300 302 304 307 312 317 318 318 329 334 335
286 286 286 287 287 287 285 285 285 286 287 287 289 290 290 290 291 291 291 292 290 290 290 291 291 292 292 291 292 292 293 293 293 293 294 296 298 298 299 300 301 304 307 312 316 315 314 321 333
286 283 284 285 286 285 285 281 281 286 287 287 287 288 288 289 290 290 291 290 289 290 290 290 291 292 290 290 291 292 292 292 292 292 294 295 297 297 297 299 300 302 304 306 310 313 315 314 325
281 281 278 283 285 286 284 278 283 285 285 286 286 286 287 288 290 289 290 289 289 289 289 289 290 289 289 289 290 290 291 291 292 293 294 295 295 296 296 297 299 302 304 305 306 311 313 313 313
278 274 277 279 284 284 284 279 283 285 285 284 285 285 285 286 288 288 289 288 289 288 288 288 288 288 288 288 289 289 290 290 291 292 293 294 295 296 296 297 299 301 303 304 306 308 313 314 313
273 274 277 276 280 282 279 279 283 284 283 283 283 283 283 285 287 288 288 288 288 288 287 287 287 288 288 288 288 288 288 289 290 291 292 294 295 295 296 297 298 299 301 302 304 306 311 317 318
277 277 276 278 281 280 278 278 281 283 281 280 280 281 283 284 287 287 287 287 287 287 286 286 286 287 287 286 285 285 285 287 288 290 292 293 294 294 294 296 297 298 299 300 302 304 306 310 314
278 273 272 278 280 279 277 277 280 280 280 281 282 282 282 283 284 285 286 286 286 285 285 285 286 286 286 286 286 286 285 286 288 290 290 292 294 295 295 295 297 297 298 298 300 303 304 307 311
277 274 272 276 279 277 275 274 276 280 282 283 282 282 282 283 283 284 285 285 285 284 284 285 285 286 286 286 286 285 286 286 287 289 289 291 292 293 293 294 295 296 299 298 299 301 302 303 307
273 279 279 277 271 267 275 267 275 277 278 281 282 281 281 281 282 283 284 284 284 284 284 284 285 285 286 285 284 283 283 282 285 286 288 289 290 291 293 293 294 295 298 299 300 301 303 306 304
277 280 278 274 269 267 268 265 273 276 277 277 279 281 281 281 281 282 283 284 284 284 283 283 284 284 284 284 284 283 282 283 285 286 286 287 290 291 292 293 294 294 297 299 299 300 303 305 306
279 274 272 268 263 262 262 266 271 274 275 277 280 280 281 281 281 281 282 283 283 283 283 283 282 283 284 284 283 282 281 281 282 284 285 286 288 290 291 292 294 296 297 298 299 301 302 305 307
275 266 263 264 262 265 258 265 272 276 276 277 279 279 280 280 280 280 281 281 282 282 282 282 282 282 283 283 282 282 281 281 281 283 284 286 287 288 290 291 293 295 298 299 299 300 301 305 306
272 267 264 260 262 264 260 264 273 276 278 278 278 278 279 280 281 280 281 281 281 281 281 280 280 280 282 282 281 282 281 281 282 283 284 285 287 288 289 290 293 297 300 300 301 301 302 303 307
271 266 270 260 254 258 263 266 274 277 272 276 277 278 279 279 280 279 279 279 279 279 278 278 279 280 281 281 281 281 281 282 282 283 285 285 287 288 289 292 294 297 299 300 301 302 303 304 308
271 274 266 263 260 258 262 258 269 270 270 269 273 272 275 276 277 278 277 278 278 277 277 277 278 279 280 280 280 281 281 282 283 283 284 286 287 288 290 292 293 295 297 301 301 303 305 306 307
271 268 266 266 266 261 258 267 268 269 269 271 271 274 273 274 275 275 276 275 275 275 275 276 277 278 279 280 280 280 281 281 282 283 285 286 287 289 290 291 293 294 295 299 300 301 302 302 302
274 270 272 267 263 261 264 267 269 270 264 262 271 275 275 272 273 272 273 273 274 273 274 274 277 277 279 280 280 280 280 281 282 283 285 287 288 290 290 292 291 292 293 294 297 299 299 299 299
Wind_Speed
7 5 1 5 5 4 2 4 1 1 2 2 1 4 8 5 4 5 4 7 6 9 10 14 21 22 22 23 24 23 23 22 21 16 10 8 6 5 4 5 6 8 10 10 11 11 9 10 10
3 2 4 3 5 3 4 2 2 1 2 2 1 3 5 4 2 4 4 7 8 8 8 13 18 20 21 22 22 21 22 22 22 21 20 14 10 8 7 7 7 8 10 10 10 11 10 8 10
1 3 4 5 3 5 4 2 3 1 4 1 3 5 3 4 2 3 1 4 6 9 9 12 18 19 20 21 22 21 20 20 20 21 21 19 19 12 11 9 8 10 11 11 12 12 11 12 10
2 4 4 4 4 2 2 1 2 2 2 5 1 7 3 1 2 3 4 4 8 9 9 13 18 19 19 21 21 22 22 21 20 19 18 21 20 17 16 12 12 11 11 12 13 11 11 11 10
4 3 4 3 2 1 1 1 2 1 1 3 2 4 4 2 5 6 5 5 8 8 8 10 17 18 18 19 21 21 22 22 21 20 18 16 18 20 17 16 13 13 12 13 12 12 11 13 12
4 3 4 3 3 1 1 1 0 2 1 2 4 3 3 3 5 4 4 6 6 8 8 9 13 17 17 18 20 20 20 21 21 21 19 18 17 16 16 16 16 15 16 14 13 12 12 15 14
6 4 3 4 3 1 4 2 3 3 2 1 3 5 2 3 4 4 4 5 5 6 7 7 9 11 15 16 19 20 21 20 20 20 19 20 19 16 16 16 14 16 16 16 15 13 12 15 15
5 5 4 3 4 4 1 1 2 2 2 3 2 4 3 4 7 5 3 3 5 5 6 6 6 8 9 7 15 17 19 20 19 18 18 19 17 17 16 14 14 16 17 17 17 14 14 16 16
2 5 3 5 7 3 1 2 1 1 1 1 2 4 1 5 6 3 0 1 2 3 5 6 7 7 8 7 9 12 13 17 18 14 16 14 9 12 12 13 14 17 17 17 16 16 16 14 14
5 4 6 2 3 3 2 0 1 1 2 1 1 1 3 5 4 4 3 2 0 1 3 5 6 7 7 7 7 8 9 8 8 9 11 8 11 9 12 12 13 13 14 15 16 15 15 13 8
1 3 4 2 2 2 2 2 1 2 4 7 6 6 4 3 4 5 4 2 0 2 4 7 8 9 9 8 6 4 5 6 6 9 9 9 8 8 7 6 6 7 6 5 8 9 8 11 9
5 2 1 3 2 2 2 2 3 6 5 2 5 3 2 5 6 7 5 4 3 2 0 3 5 6 6 4 5 7 6 6 7 9 11 8 6 7 8 6 8 7 5 5 6 6 9 11 13
4 2 1 1 1 3 2 5 6 8 11 6 4 5 7 7 8 5 5 4 2 2 5 7 8 9 8 9 7 7 8 7 9 9 9 8 8 8 8 8 8 8 8 6 4 6 8 9 12
2 2 1 1 1 1 3 3 1 5 2 7 6 5 6 7 7 4 5 4 2 3 5 6 9 7 8 10 11 9 8 9 8 9 9 11 9 8 9 9 8 8 8 8 6 5 6 8 10
2 3 2 2 1 2 2 5 9 4 2 6 5 5 6 7 5 8 5 4 2 1 4 6 9 8 9 10 9 8 8 9 9 9 11 12 11 11 11 9 9 9 9 12 9 8 7 7 9
4 4 1 0 4 2 2 9 2 2 4 7 7 7 6 6 7 5 5 4 2 4 6 7 8 10 10 10 9 9 9 9 9 9 9 12 12 12 11 9 9 9 9 8 9 9 7 7 7
7 2 2 4 4 4 2 9 4 3 4 9 11 9 6 6 5 5 5 3 1 3 6 8 8 9 10 10 9 10 11 9 9 9 9 12 12 12 11 10 9 10 9 8 9 8 10 8 8
4 1 2 4 4 3 6 17 21 8 10 14 11 9 6 6 7 7 4 2 2 3 4 6 7 8 8 8 8 8 8 8 8 9 9 12 9 12 11 10 11 10 9 9 9 11 9 10 9
5 2 3 4 2 4 5 12 24 13 8 10 10 8 6 6 5 5 4 2 4 5 5 6 8 9 7 8 8 7 8 9 10 10 13 14 11 12 13 9 11 10 10 11 12 10 12 10 9
4 3 5 5 1 3 7 21 18 8 5 4 2 4 4 4 5 5 4 3 4 5 5 6 7 8 8 7 8 7 9 9 10 11 13 14 14 11 11 12 11 12 10 13 13 12 9 10 8
1 3 2 3 7 3 8 10 6 3 3 3 3 3 3 8 8 6 5 5 4 5 6 7 9 10 9 10 8 8 9 9 9 8 10 10 13 14 14 13 11 13 11 10 12 12 14 10 9
1 1 1 2 5 3 6 8 8 4 7 4 5 4 6 7 6 5 5 6 5 5 5 7 9 10 10 11 10 13 11 12 10 11 11 12 15 16 15 15 14 13 11 13 11 11 12 11 12
1 3 3 3 4 4 5 3 10 4 6 4 4 6 7 8 8 8 7 6 6 5 6 7 8 11 10 10 12 11 13 11 10 11 15 15 13 13 15 15 14 14 11 13 15 14 14 12 11
4 4 5 4 4 3 3 3 8 3 5 2 2 4 6 6 8 8 7 5 6 5 6 7 8 11 10 10 13 15 16 15 13 13 12 11 10 10 13 14 13 13 14 15 14 15 16 14 13
4 7 5 7 6 6 1 1 14 6 5 6 7 10 7 6 7 7 8 5 5 7 7 6 8 12 11 12 14 15 16 16 17 15 11 12 9 9 11 14 14 13 15 14 15 15 16 15 14
2 6 7 5 3 6 2 8 9 7 5 7 8 8 8 8 6 8 8 5 6 8 8 8 9 12 12 13 14 13 14 10 10 12 11 10 10 10 15 15 15 17 16 16 14 12 14 14 14
2 2 3 8 2 4 3 10 14 5 6 4 5 6 7 6 7 8 7 5 6 6 7 7 10 12 13 14 12 13 13 13 12 15 13 11 12 11 15 16 15 15 16 15 15 13 14 14 13
5 3 5 4 2 6 7 8 8 6 6 5 4 6 8 7 9 8 6 7 4 5 6 8 8 11 13 14 11 11 13 13 12 13 14 14 13 13 14 13 14 13 15 13 15 13 13 13 8
1 2 5 4 3 5 4 9 10 9 7 9 9 8 9 9 11 8 9 5 6 5 6 7 9 11 12 11 12 13 13 13 12 12 13 13 13 13 13 12 11 11 12 6 6 7 5 4 5
3 5 4 5 5 2 2 14 0 8 5 4 11 11 11 8 9 8 8 6 5 5 6 7 10 12 10 11 12 13 13 12 12 12 12 12 12 9 10 8 8 8 8 7 5 5 4 4 7
Wind_Direction
343 324 2 41 73 64 228 242 218 113 90 8 332 108 109 64 39 123 168 27 38 32 14 27 33 35 38 40 34 32 27 23 16 8 338 315 293 266 223 207 208 197 205 204 189 174 166 171 167
350 316 45 84 91 105 255 253 147 95 333 279 88 111 56 91 89 112 116 23 50 42 25 33 33 34 35 36 37 31 28 27 20 12 7 348 304 283 250 226 218 222 220 212 199 191 175 170 163
55 5 83 92 113 183 186 177 137 133 355 90 106 50 100 111 92 93 86 82 63 47 31 37 38 37 35 34 30 28 27 24 21 15 8 1 1 312 281 252 229 225 229 224 213 202 195 186 182
38 15 46 92 195 215 130 109 338 326 337 39 77 72 62 42 128 150 103 87 68 47 35 35 41 40 40 36 31 25 22 20 17 15 5 3 358 349 352 285 258 229 226 232 228 212 204 192 193
38 55 66 77 255 138 128 113 333 88 78 18 350 157 109 69 105 110 85 60 61 46 43 44 43 40 39 35 30 24 17 12 10 6 2 358 350 348 340 332 291 257 236 232 235 230 219 193 194
48 87 76 200 230 204 158 13 295 66 10 10 77 101 157 138 154 136 100 75 64 57 40 38 37 38 36 32 24 19 14 9 1 357 354 353 347 339 341 338 329 299 259 242 238 234 227 208 189
116 93 188 172 193 221 193 321 122 135 131 120 150 137 173 197 161 143 108 82 68 64 57 39 31 28 25 21 18 11 6 4 359 353 351 347 341 339 333 336 330 332 297 264 242 230 226 220 196
101 92 126 200 187 224 216 118 141 139 168 322 173 181 213 205 163 143 117 65 58 59 58 48 40 25 13 7 11 6 360 356 354 350 347 342 335 335 329 323 324 320 317 299 257 236 224 222 212
126 68 192 207 160 173 285 165 107 196 212 306 188 151 149 118 130 163 157 18 43 37 40 29 22 17 10 357 359 355 353 350 345 344 339 336 331 324 323 318 309 315 313 307 285 248 229 221 216
81 123 212 166 152 152 148 240 295 8 15 252 122 31 110 139 168 193 203 236 283 33 32 32 16 359 353 352 349 343 338 336 333 331 330 328 319 316 314 306 309 306 305 321 285 273 236 219 218
95 155 168 193 139 107 115 286 210 146 254 217 187 189 182 186 208 215 222 225 295 13 11 4 0 350 345 343 341 333 327 325 323 322 320 315 316 313 313 309 309 305 302 299 295 259 249 225 214
98 74 89 170 128 97 199 138 269 194 229 154 194 130 179 214 223 222 222 215 192 199 312 341 341 329 321 311 319 322 322 323 317 318 313 313 309 309 306 302 302 298 296 286 281 287 246 227 211
78 149 75 99 215 261 337 245 238 242 237 245 274 231 231 228 229 225 216 200 149 34 355 347 339 335 336 335 327 325 321 312 310 307 306 305 301 300 300 296 293 290 294 282 271 287 280 228 218
108 94 30 49 216 261 246 259 146 261 204 203 195 207 226 230 232 202 206 201 77 7 347 332 336 330 336 329 323 317 313 309 306 303 298 297 290 293 293 289 287 285 283 286 279 273 271 304 224
89 92 103 46 292 246 278 257 232 227 133 167 214 247 294 257 216 211 192 158 116 320 320 344 333 331 321 319 318 312 300 306 300 296 293 290 288 287 287 284 281 281 279 281 280 270 257 256 274
51 48 75 153 346 307 58 273 279 145 189 244 259 277 273 258 224 195 157 134 40 356 343 320 325 325 325 322 312 310 305 298 290 288 291 286 283 285 283 281 277 276 276 277 273 272 261 246 255
18 198 286 315 32 331 65 282 191 141 225 269 275 267 259 269 209 172 151 128 15 325 310 315 318 310 313 312 306 303 297 289 286 286 286 280 280 282 279 274 276 279 272 268 269 265 262 257 245
230 44 251 252 330 1 279 267 282 251 237 257 263 268 252 243 206 166 152 163 269 283 283 284 289 295 303 305 303 297 295 294 290 283 278 274 267 284 280 275 276 274 269 265 258 260 257 255 247
122 149 251 260 7 305 255 277 283 295 238 259 260 263 246 224 196 167 175 235 259 265 281 301 307 312 322 324 320 314 306 301 296 288 284 279 271 276 278 269 270 268 264 260 262 259 258 253 260
71 113 274 283 210 317 331 296 292 296 268 229 266 277 235 178 184 211 233 245 269 285 302 307 306 313 315 310 305 299 302 294 292 287 283 279 272 270 272 271 262 260 265 265 259 253 252 254 242
201 172 265 269 329 69 319 295 323 306 311 283 251 241 205 200 203 229 246 257 294 302 310 316 310 307 308 312 307 299 294 288 283 283 292 283 281 278 271 269 267 268 258 259 257 250 242 248 241
320 167 59 17 45 277 24 279 300 319 305 273 273 245 238 227 237 244 262 279 278 282 289 296 299 301 306 311 299 295 292 290 289 289 280 284 282 278 275 274 267 265 257 251 253 246 245 240 240
154 47 64 75 96 38 344 61 270 349 324 311 265 250 252 244 238 247 250 258 280 283 294 290 294 291 293 294 293 295 290 287 291 285 289 285 280 281 280 275 275 266 252 252 254 248 241 237 238
117 71 43 60 93 16 250 134 278 218 203 279 244 287 286 280 255 251 260 277 284 283 277 283 284 291 291 294 288 287 285 290 288 290 287 285 280 274 275 275 269 259 258 252 248 245 241 238 237
74 52 332 353 8 230 268 311 246 270 251 224 275 287 284 293 287 273 271 280 284 290 299 291 299 300 303 299 291 286 284 286 284 284 279 282 284 280 276 278 273 262 265 243 241 239 238 235 232
76 143 152 230 266 276 14 240 252 218 208 234 252 265 288 298 290 277 274 269 291 296 302 302 307 305 305 296 289 286 286 284 282 279 279 276 277 278 280 276 270 264 277 246 236 235 237 234 229
240 53 161 100 74 29 251 284 287 259 274 243 257 276 269 292 309 301 297 274 284 294 299 301 305 302 297 295 293 293 293 288 284 286 279 274 273 274 272 276 284 286 287 241 234 231 229 232 226
136 140 47 5 347 302 286 275 243 294 268 303 283 272 281 293 306 307 291 284 303 287 295 296 295 296 296 294 293 293 295 289 282 278 277 276 275 270 273 277 281 290 291 245 231 239 232 218 217
87 6 47 123 127 185 294 261 214 232 228 264 286 280 269 287 294 302 296 295 287 292 301 306 310 310 304 306 306 305 295 293 285 279 279 276 279 279 279 278 284 295 310 284 198 205 158 171 205
157 186 161 132 244 222 175 270 200 240 242 228 274 279 284 264 283 290 290 297 300 312 313 319 326 309 315 310 309 300 294 291 290 284 283 286 283 279 283 284 296 301 311 308 290 162 163 170 212